Location: Peebles
(55.6412°N, 3.1714°W)
Time: 23:03:10
(UTC+00:00)

FENGYUN 1C DEB - Pass Details

Date: 12 February 2023
Orbit: 707 x 862 km, 98.5° (Epoch: 07 November)

Event Time Altitude Azimuth Distance (km) Brightness Sun altitude
Rises 18:00:46 0° 126° (SE) 3,409 ? -7.6°
Reaches altitude 10° 18:03:22 10° 117° (ESE) 2,477 ? -7.9°
Maximum altitude 18:08:07 31° 57° (ENE) 1,453 ? -8.6°
Drops below altitude 10° 18:12:51 10° 357° (N) 2,459 ? -9.2°
Sets 18:15:25 0° 348° (NNW) 3,381 ? -9.6°
